AO-07 1 7530U 74089B 23110.75580534 -.00000042 00000-0 27150-4 0 9993 2 7530 101.9452 97.0514 0012227 171.8391 2.4384 12.53663494216215 UO-11 1 14781U 84021B 23110.50649519 .00002687 00000-0 32316-3 0 9993 2 14781 97.6535 89.6938 0009242 40.9743 319.2165 14.84694060 85580 AO-16 1 20439U 90005D 23110.44890304 .00000428 00000-0 17321-3 0 9992 2 20439 98.8816 99.2073 0011115 18.6777 133.0629 14.33076577736637 LO-19 1 20442U 90005G 23110.36724297 .00000418 00000-0 16872-3 0 9993 2 20442 98.8399 85.6627 0011613 354.0854 6.0191 14.33231116737060 HUBBLE 1 20580U 90037B 23110.54154611 .00006463 00000-0 34832-3 0 9990 2 20580 28.4691 291.4404 0002875 109.8283 290.2412 15.12793488612720 MET-2/21 1 22782U 93055A 23110.51257472 .00000085 00000-0 63228-4 0 9991 2 22782 82.5460 130.5492 0021727 202.5898 311.5831 13.83882847496749 AO-27 1 22825U 93061C 23110.35511791 .00000252 00000-0 11489-3 0 9992 2 22825 98.8477 152.2957 0007564 231.9577 128.0923 14.30285228542024 IO-26 1 22826U 93061D 23110.09332908 .00000285 00000-0 12659-3 0 9991 2 22826 98.8422 151.8941 0008291 217.7791 142.2810 14.30643313542252 FO-29 1 24278U 96046B 23110.36752970 .00000010 00000-0 46586-4 0 9998 2 24278 98.5254 96.8140 0349796 206.7393 151.5333 13.53141716317110 NOAA-15 1 25338U 98030A 23110.70355408 .00000354 00000-0 16540-3 0 9991 2 25338 98.6118 140.7290 0011488 119.2622 240.9708 14.26295348297062 GO-32 1 25397U 98043D 23110.38761352 .00000216 00000-0 11416-3 0 9997 2 25397 98.8636 67.3631 0000739 2.2393 357.8788 14.23858898287102 ISS 1 25544U 98067A 23110.56616775 .00019410 00000-0 34669-3 0 9996 2 25544 51.6392 254.0903 0006098 214.8909 221.8318 15.50031261392853 NO-44 1 26931U 01043C 23110.11675462 .00000389 00000-0 17931-3 0 9992 2 26931 67.0525 346.7652 0007315 280.5915 79.4363 14.30890246125273 SO-50 1 27607U 02058C 23110.41895382 .00002311 00000-0 33154-3 0 9990 2 27607 64.5548 82.0107 0073845 236.2688 123.1364 14.77128494 93690 CO-55 1 27844U 03031E 23110.02006988 .00000714 00000-0 33798-3 0 9997 2 27844 98.6800 118.1263 0008686 297.8914 62.1384 14.22731826 27467 CO-57 1 27848U 03031J 23109.94091207 .00000646 00000-0 31072-3 0 9995 2 27848 98.6838 118.4857 0008760 314.6196 45.4266 14.22248714 27223 RS-22 1 27939U 03042A 23110.73623603 .00002473 00000-0 43769-3 0 9994 2 27939 98.2323 257.2991 0011623 322.0694 37.9692 14.68218931 46114 NOAA-18 1 28654U 05018A 23110.70691653 .00000387 00000-0 23164-3 0 9990 2 28654 98.9114 185.3718 0014483 178.4777 181.6441 14.12916678923456 CO-58 1 28895U 05043F 23110.58484791 .00002985 00000-0 55966-3 0 9995 2 28895 98.1439 243.1235 0015197 251.8621 108.0927 14.65436554932370 CO-65 1 32785U 08021C 23110.72477678 .00006620 00000-0 66042-3 0 9996 2 32785 97.7016 77.9466 0010471 299.4356 60.5817 14.91829490812327 AAUSAT2 1 32788U 08021F 23110.44202303 .00013575 00000-0 10207-2 0 9997 2 32788 97.5541 91.2109 0007678 177.8537 182.2723 15.02653491814531 DO-64 1 32789U 08021G 23110.48949624 .00053585 00000-0 18067-2 0 9993 2 32789 97.3088 132.6090 0004496 346.4519 13.6600 15.30528832818541 CO-66 1 32791U 08021J 23110.49690617 .00007770 00000-0 69680-3 0 9995 2 32791 97.6520 82.9908 0010267 241.5948 118.4238 14.95994378813118 RS-30 1 32953U 08025A 23110.57950968 .00000024 00000-0 10000-3 0 9993 2 32953 82.5077 352.9358 0019132 312.9395 47.0079 12.43122004676494 PRISM 1 33493U 09002B 23110.24581131 .00014603 00000-0 10242-2 0 9990 2 33493 98.2480 120.7529 0015271 236.7780 123.1982 15.05209026775027 NOAA-19 1 33591U 09005A 23110.81504269 .00000293 00000-0 18265-3 0 9996 2 33591 99.1061 155.8096 0014507 47.9568 312.2835 14.12736257731844 SRMSAT 1 37841U 11058D 23110.51904000 .00000610 00000-0 18991-3 0 9992 2 37841 19.9707 198.6842 0011949 117.4045 356.6418 14.10875801594659 HRBE 1 37855U 11061F 23110.59678455 .00024905 00000-0 83823-3 0 9990 2 37855 101.7048 40.1621 0125284 215.6924 143.5874 15.23532519628257 RS-40 1 38735U 12041C 23110.50438148 .00000046 00000-0 25855-3 0 9992 2 38735 82.4744 74.0564 0018570 63.1044 297.1929 12.42592990486653 ZACUBE-1 1 39417U 13066B 23110.47706440 .00004998 00000-0 58230-3 0 9990 2 39417 97.6808 74.2041 0056959 116.3675 244.3403 14.84496685508632 Delfi-N3xt 1 39428U 13066N 23110.34243113 .00009703 00000-0 14047-2 0 9997 2 39428 97.8331 37.2558 0112580 16.1128 344.3613 14.72017789503621 GOMX-1 1 39430U 13066Q 23110.75414242 .00002926 00000-0 51435-3 0 9991 2 39430 97.7868 5.2360 0146503 154.4866 206.3681 14.61540157501157 LO-74 1 39440U 13066AA 23110.40080714 .00004224 00000-0 55189-3 0 9990 2 39440 97.7683 61.0752 0074811 214.1457 145.4932 14.79033329506817 AO-73 1 39444U 13066AE 23110.63868477 .00007036 00000-0 78707-3 0 9994 2 39444 97.6672 76.8595 0055517 102.1727 258.5715 14.86079215507688 SPROUT 1 39770U 14029E 23110.56843093 .00033947 00000-0 27325-2 0 9994 2 39770 97.9664 236.2564 0009010 143.1516 217.0325 14.99838564483516 DTUSAT-2 1 40030U 14033W 23110.36919480 .00006880 00000-0 67427-3 0 9996 2 40030 97.9642 50.2053 0012537 118.2003 242.0483 14.92521129479373 EO-80 1 40032U 14033Y 23110.34509069 .00006164 00000-0 60478-3 0 9998 2 40032 97.9647 50.1983 0012300 118.9530 241.2923 14.92524593479346 HODOYOSHI-1 1 40299U 14070B 23110.88102010 .00016786 00000-0 53738-3 0 9990 2 40299 97.1995 175.0714 0012563 120.9182 326.7793 15.32383815470031 FIREBIRD FU3 1 40377U 15003B 23110.36344214 .00132488 00000-0 16419-2 0 9993 2 40377 99.0768 52.8045 0058282 55.7335 304.9416 15.57535849455608 FIREBIRD FU4 1 40378U 15003C 23110.43207992 .00130103 00000-0 16036-2 0 9990 2 40378 99.0794 53.2018 0058217 54.6477 306.0195 15.57688687455624 GRIFEX 1 40379U 15003D 23110.36527554 .00039347 00000-0 96170-3 0 9998 2 40379 99.0798 33.4114 0091054 109.7278 251.3811 15.36446937454491 XW-2A 1 40903U 15049E 23110.71773397 .02544850 22897-5 81558-3 0 9997 2 40903 97.0955 179.6363 0009562 249.6724 210.2587 16.26176883427369 XW-2C 1 40906U 15049H 23110.85228407 .00019129 00000-0 76625-3 0 9992 2 40906 97.4962 117.8512 0012370 14.8166 68.8202 15.25016638419650 XW-2D 1 40907U 15049J 23110.87346595 .00022704 00000-0 86501-3 0 9991 2 40907 97.4941 118.2625 0011000 9.6693 75.0594 15.26667873419731 LILACSAT-2 1 40908U 15049K 23110.87694963 .00009897 00000-0 47447-3 0 9991 2 40908 97.5260 114.1220 0015165 36.4941 47.6862 15.19009534419091 XW-2E 1 40909U 15049L 23110.84438951 .00040784 00000-0 11953-2 0 9994 2 40909 97.4578 123.9579 0007530 341.6896 138.6312 15.35061140420334 XW-2F 1 40910U 15049M 23110.88345088 .00040516 00000-0 12101-2 0 9997 2 40910 97.4663 123.2188 0008508 342.2681 136.5986 15.34456912420096 XW-2B 1 40911U 15049N 23110.86790690 .00022307 00000-0 85511-3 0 9993 2 40911 97.4921 118.7292 0011173 11.2820 108.8000 15.26466803419615 DCBB 1 40912U 15049P 23110.72647765 .00049333 00000-0 12467-2 0 9990 2 40912 97.4231 127.5428 0006738 291.2228 193.0891 15.39621457420755 IO-86 1 40931U 15052B 23110.50027555 .00001711 00000-0 14727-3 0 9990 2 40931 5.9978 138.3586 0012601 199.9820 159.9840 14.77166985408810 ATHENOXAT-1 1 41168U 15077C 23110.23855223 .00130695 00000-0 25638-2 0 9997 2 41168 14.9852 311.9399 0003434 324.1585 181.7952 15.45433519407305 ChubuSat-2 1 41338U 16012B 23110.52683458 .00005581 00000-0 39238-3 0 9994 2 41338 31.0027 226.3256 0012260 324.0287 35.9524 15.03547412393697 ChubuSat-3 1 41339U 16012C 23110.73838931 .00006050 00000-0 42702-3 0 9998 2 41339 31.0112 222.0009 0012301 332.0104 149.7551 15.03449065393728 Horyu-4 1 41340U 16012D 23110.51963847 .00009463 00000-0 60859-3 0 9995 2 41340 31.0035 194.0237 0011439 25.9992 334.1219 15.07078008394012 e-st@r-II 1 41459U 16025D 23110.47005800 .00034599 00000-0 10943-2 0 9997 2 41459 98.1913 306.0614 0112936 299.3762 59.6237 15.26620650384084 AAUSAT4 1 41460U 16025E 23110.60203970 .00102052 00000-0 18953-2 0 9991 2 41460 98.1677 316.9130 0074610 258.4446 187.4748 15.45485925384843 LO-87 1 41557U 16033B 23110.88189431 .00070785 00000-0 11377-2 0 9992 2 41557 97.3848 216.8030 0005821 341.5073 159.1948 15.52756838384712 NuSat2 1 41558U 16033C 23110.91501751 .00080053 00000-0 11675-2 0 9990 2 41558 97.4111 224.4426 0005972 325.8058 157.1622 15.55400789385044 Lapan A3 1 41603U 16040E 23110.76242448 .00003945 00000-0 17466-3 0 9997 2 41603 97.1726 138.9753 0013462 152.1123 328.1861 15.22124452378752 Pratham 1 41783U 16059A 23110.53935028 .00001239 00000-0 24433-3 0 9990 2 41783 97.8749 144.2056 0031626 283.5798 76.1883 14.63853072350540 TY-1 1 41844U 16066D 23110.91005969 .00065485 00000-0 12626-2 0 9993 2 41844 97.3738 128.8604 0006494 253.3196 223.8136 15.47602196358801 CAS-2T 1 41847U 16066G 23110.27435090 .00002044 00000-0 31207-3 0 9996 2 41847 98.5076 179.0937 0360509 11.3811 349.5261 14.39548150338470 EO-88 1 42017U 17008BX 23110.41612690 .00125061 00000-0 14214-2 0 9995 2 42017 97.2173 179.9401 0004629 207.1684 152.9333 15.61894664344406 CAS-4B 1 42759U 17034B 23110.40163149 .00012251 00000-0 63035-3 0 9998 2 42759 43.0171 76.6689 0009520 81.6858 56.3167 15.16349080322865 CAS-4A 1 42761U 17034D 23110.35113993 .00014120 00000-0 72279-3 0 9994 2 42761 43.0159 75.5020 0009805 88.5111 39.4920 15.16430803322868 NIUSat 1 42766U 17036B 23110.02650259 .00032926 00000-0 92725-3 0 9998 2 42766 97.1635 142.7529 0008697 318.1193 41.9386 15.36347863323672 Aalto 1 1 42775U 17036L 23110.03326048 .00027054 00000-0 83745-3 0 9993 2 42775 97.1585 141.8244 0008630 321.3604 38.7020 15.33404307323606 URSA MAIOR 1 42776U 17036M 23110.03157941 .00030480 00000-0 89820-3 0 9995 2 42776 97.1595 143.0029 0007949 316.9542 43.1079 15.34945236323668 Max Valier Sat 1 42778U 17036P 23110.04882105 .00031483 00000-0 89262-3 0 9999 2 42778 97.1631 146.3509 0006378 318.1083 41.9673 15.36162698323794 Pegasus 1 42784U 17036V 23110.05317967 .00045454 00000-0 10395-2 0 9999 2 42784 97.1544 148.3492 0005189 306.4181 53.6588 15.42674028324007 NUDATSat 1 42787U 17036Y 23110.53822434 .00282553 00000-0 21547-2 0 9999 2 42787 97.1484 157.5851 0004085 228.7091 131.3824 15.71376257324477 SUCHAI 1 1 42788U 17036Z 23110.06456195 .00081053 00000-0 14625-2 0 9996 2 42788 97.1519 151.4241 0003837 282.8490 77.2333 15.49459516324277 SKCUBE 1 42789U 17036AA 23110.55429976 .00049390 00000-0 10093-2 0 9991 2 42789 97.1530 150.6969 0004374 291.4745 68.6038 15.45992867324199 VZLUSAT 1 1 42790U 17036AB 23110.12570800 .00242883 00000-0 20359-2 0 9997 2 42790 97.1468 156.9209 0004683 231.1356 128.9489 15.69200001324546 VENTA 1 1 42791U 17036AC 23110.33965597 .00045143 00000-0 10254-2 0 9995 2 42791 97.1554 149.7860 0004509 300.4272 59.6530 15.42882333324104 Robusta 1B 1 42792U 17036AD 23110.10873741 .00058154 00000-0 10928-2 0 9994 2 42792 97.1517 151.2721 0003777 285.7073 74.3762 15.48390682324207 D-SAT 1 42794U 17036AF 23110.45790658 .00006126 00000-0 48961-3 0 9990 2 42794 97.4637 105.2333 0119262 135.2977 225.7934 14.95073780317306 TechnoSat 1 42829U 17042E 23110.50298831 .00004340 00000-0 41833-3 0 9995 2 42829 97.3930 311.3939 0014947 63.1368 297.1378 14.93315516313887 AO-91 1 43017U 17073E 23110.46692360 .00007116 00000-0 50766-3 0 9998 2 43017 97.6382 357.0958 0234258 259.7201 97.7528 14.85329666292617 PICSAT 1 43132U 18004X 23110.29416847 .00065906 00000-0 11572-2 0 9998 2 43132 97.3341 192.1619 0003863 322.9118 37.1866 15.50297978293555 AO-92 1 43137U 18004AC 23110.45851233 .00038228 00000-0 89293-3 0 9996 2 43137 97.3313 189.1879 0004762 356.0369 4.0839 15.42079915293405 TianYi 2 1 43155U 18008A 23110.91830242 .00027074 00000-0 11333-2 0 9994 2 43155 97.3055 164.8790 0014911 147.7866 24.3975 15.23426552289924 Zhou Enlai 1 43156U 18008B 23110.86978647 .00030094 00000-0 12471-2 0 9991 2 43156 97.3101 164.8718 0012616 147.1920 328.6198 15.23773445289846 TianYi 6 1 43158U 18008D 23110.63374667 .00022825 00000-0 10227-2 0 9990 2 43158 97.3088 161.8263 0012198 151.9574 332.4148 15.21178869289662 S-Net D 1 43186U 18014G 23110.55801334 .00006181 00000-0 50007-3 0 9993 2 43186 97.6446 15.4048 0012259 3.9675 356.1643 15.00062464284911 S-Net B 1 43187U 18014H 23110.55876291 .00006090 00000-0 49284-3 0 9992 2 43187 97.6444 15.3413 0012317 3.0545 357.0751 15.00057681284912 S-Net A 1 43188U 18014J 23110.29216055 .00006306 00000-0 51017-3 0 9997 2 43188 97.6450 15.1626 0012355 3.9410 356.1908 15.00056866284879 S-Net C 1 43189U 18014K 23110.56062489 .00005880 00000-0 47607-3 0 9994 2 43189 97.6446 15.3283 0012374 0.7790 359.3450 15.00051605283460 Shaonian Xing 1 43199U 18015H 23110.67863632 .00137826 00000-0 15867-2 0 9995 2 43199 97.5409 266.0493 0005548 355.5941 60.7836 15.61512193290809 CubeBel-1 1 43666U 18083E 23110.52070875 .00039390 00000-0 11732-2 0 9996 2 43666 97.3875 141.9179 0008204 334.7970 163.5304 15.34553679248346 Changshagaoxin 1 43669U 18083H 23110.89121822 .00034366 00000-0 11209-2 0 9995 2 43669 97.3863 137.2026 0006224 340.5746 142.0435 15.31698650248164 Ten-Koh 1 43677U 18084G 23110.64017077 .00003756 00000-0 36912-3 0 9992 2 43677 98.0035 249.5176 0014642 342.6863 17.3854 14.92700674243475 PO-101 1 43678U 18084H 23110.49694045 .00003387 00000-0 32951-3 0 9991 2 43678 98.0115 253.3409 0009378 0.6889 359.4361 14.93220991243659 QO-100 1 43700U 18090A 23110.51745369 .00000137 00000-0 00000-0 0 9990 2 43700 0.0161 250.6058 0001167 163.3084 6.5226 1.00274631 16103 Reaktor Hello World 1 43743U 18096AA 23110.53551202 .00059008 00000-0 98724-3 0 9990 2 43743 97.3198 196.2240 0009572 36.3031 323.8869 15.51648818245213 MinXSS-2 1 43758U 18099A 23110.73495799 .00009036 00000-0 71486-3 0 9991 2 43758 97.5901 176.0874 0015614 322.2282 37.7845 15.00750746239127 AO-95 1 43770U 18099N 23110.17189424 .00007124 00000-0 58853-3 0 9997 2 43770 97.5757 173.2793 0011727 326.1476 33.8998 14.99206166238919 RANGE-B 1 43772U 18099Q 23109.97314735 .00011684 00000-0 92480-3 0 9990 2 43772 97.5859 175.6610 0007647 307.8208 52.2324 15.00736167238935 RANGE-A 1 43773U 18099R 23110.23272201 .00004987 00000-0 42615-3 0 9996 2 43773 97.5678 171.5975 0011451 315.4364 44.5937 14.98036547238889 MOVE-II 1 43780U 18099Y 23110.12418961 .00016888 00000-0 12705-2 0 9996 2 43780 97.5764 175.4130 0008482 353.3950 6.7162 15.02578499239010 SNUSat 2 1 43782U 18099AA 23110.13355915 .00007141 00000-0 59066-3 0 9992 2 43782 97.5805 173.7615 0009890 321.1715 38.8796 14.99172025238932 SnugLite 1 43784U 18099AC 23110.17271818 .00007375 00000-0 60178-3 0 9992 2 43784 97.5717 173.4349 0011565 315.9528 44.0773 14.99669502238971 ITASat 1 1 43786U 18099AE 23110.16295728 .00005851 00000-0 48696-3 0 9997 2 43786 97.5791 174.3077 0013581 318.7458 41.2738 14.98972193238956 EAGLET 1 1 43790U 18099AJ 23110.12348136 .00006407 00000-0 53728-3 0 9990 2 43790 97.5795 174.7731 0010862 328.4173 31.6397 14.98670796238685 ESEO 1 43792U 18099AL 23110.22864447 .00002816 00000-0 24694-3 0 9991 2 43792 97.5736 173.5128 0012023 323.7725 36.2682 14.97377126238713 CSIM 1 43793U 18099AM 23110.43651437 .00011871 00000-0 88282-3 0 9992 2 43793 97.5821 176.9661 0014304 329.0683 30.9699 15.03048583238904 Astrocast 0.1 1 43798U 18099AS 23110.18755327 .00008121 00000-0 62770-3 0 9990 2 43798 97.5925 176.1239 0013070 298.0411 61.9491 15.01705615239066 JO-97 1 43803U 18099AX 23110.16511522 .00007680 00000-0 61899-3 0 9992 2 43803 97.5731 174.2520 0012356 306.3068 53.7014 15.00125028238991 Suomi 100 1 43804U 18099AY 23110.14936883 .00006629 00000-0 53844-3 0 9995 2 43804 97.5769 174.0734 0014333 318.9579 41.0565 14.99858140238997 Al Farabi 2 1 43805U 18099AZ 23110.42019124 .00010737 00000-0 83702-3 0 9998 2 43805 97.5739 175.3062 0008588 299.3192 60.7178 15.01330940239087 CHOMPTT 1 43855U 18104G 23110.56683300 .00029699 00000-0 79829-3 0 9990 2 43855 85.0355 205.2607 0014084 171.2542 188.8957 15.37657650241710 ISAT 1 43879U 18111D 23110.27136781 .00009889 00000-0 76459-3 0 9993 2 43879 97.6524 15.5485 0014560 358.9796 1.1396 15.01619652235643 UWE-4 1 43880U 18111E 23110.19278588 .00009347 00000-0 72508-3 0 9998 2 43880 97.6435 16.2944 0017004 18.9751 341.2103 15.01478516235662 Sparrow 1 43881U 18111F 23110.75855198 .00010160 00000-0 77912-3 0 9998 2 43881 97.6519 17.3081 0012353 39.2411 320.9707 15.01944994233762 Lume 1 1 43908U 18111AJ 23110.23167644 .00039433 00000-0 89810-3 0 9997 2 43908 97.1490 354.4669 0015393 58.0304 302.2438 15.42716423240445 FO-99 1 43937U 19003F 23110.05914719 .00065306 00000-0 12884-2 0 9997 2 43937 97.0937 138.2117 0016822 127.3484 232.9302 15.46804445237042 AstroCast 0.2 1 44083U 19018F 23110.15006219 .00066561 00000-0 14713-2 0 9991 2 44083 97.2730 169.6810 0007394 127.9397 232.2520 15.43577644225440 AISTechSat 3 1 44103U 19018AB 23110.89347396 .00031065 00000-0 82798-3 0 9999 2 44103 97.2593 169.8545 0011168 120.4694 239.7656 15.38045258225693 AISat 1 1 44104U 19018AC 23110.26274464 .00026520 00000-0 55353-3 0 9993 2 44104 97.3729 200.6570 0044034 109.2448 251.3572 15.44442571226771 Prox-1 1 44339U 19036A 23110.23646014 .00010352 00000-0 21299-2 0 9991 2 44339 24.0014 52.7565 0009481 346.8318 13.1926 14.58670127203122 Move-IIb 1 44398U 19038N 23110.38022694 .00051133 00000-0 14958-2 0 9992 2 44398 97.6594 90.6990 0018095 130.9395 229.3417 15.34928809209789 SONATE 1 44400U 19038Q 23109.93165789 .00017003 00000-0 78606-3 0 9997 2 44400 97.6807 86.4481 0022327 149.4617 210.7923 15.20013589209380 BeeSat 9 1 44412U 19038AC 23110.40952867 .00028603 00000-0 10700-2 0 9993 2 44412 97.6720 89.2824 0018245 141.4264 218.8281 15.27126825209339 JAISAT-1 1 44419U 19038F 23110.17528987 .00029964 00000-0 11096-2 0 9996 2 44419 97.6716 90.0962 0017534 138.6990 221.5578 15.27463858209675 Taurus 1 1 44530U 19059C 23110.72578974 .00007127 00000-0 18666-2 0 9992 2 44530 98.5480 217.6793 0011695 262.3768 97.6125 14.49550563190319 Duchifat 3 1 44854U 19089C 23110.28022568 .00012891 00000-0 88727-3 0 9998 2 44854 36.9636 77.1223 0009150 216.8257 294.8042 15.05283825184100 OPS-SAT 1 44878U 19092F 23110.75763750 .00033456 00000-0 10966-2 0 9994 2 44878 97.4767 298.8811 0008591 342.9774 17.1178 15.31531117184993 TO-108 1 44881U 19093C 23110.38494540 .00001752 00000-0 22502-3 0 9990 2 44881 97.8619 189.8207 0013386 266.2834 93.6861 14.82391708180234 FloripaSat 1 1 44885U 19093G 23110.42304622 .00006268 00000-0 73407-3 0 9997 2 44885 97.8683 192.2441 0012431 268.0387 91.9416 14.85323129180377 RS-44 1 44909U 19096E 23110.28963531 .00000016 00000-0 26672-4 0 9999 2 44909 82.5266 26.4143 0216856 322.6282 35.9900 12.79720043154753 BY70-2 1 45857U 20042B 23110.76938915 .00028288 00000-0 30586-2 0 9994 2 45857 97.9262 190.5648 0010726 187.6160 172.4914 14.88203046150992 UPMSat 2 1 46276U 20061E 23110.72773352 .00011014 00000-0 47879-3 0 9992 2 46276 97.3506 179.5359 0002410 134.5970 225.5464 15.22442541145549 AmicalSat 1 46287U 20061R 23110.12109394 .00019684 00000-0 95334-3 0 9997 2 46287 97.4047 177.7715 0000610 301.4277 58.6898 15.18588206144890 SALSAT 1 46495U 20068K 23110.37221366 .00006882 00000-0 46066-3 0 9990 2 46495 97.7664 57.8052 0014328 323.0777 36.9462 15.07172821140361 CAPE 3 1 47309U 21002A 23110.75963827 .00041161 00000-0 11046-2 0 9999 2 47309 60.6776 280.9456 0025635 151.0637 209.1885 15.37364727125449 AO-109 1 47311U 21002C 23110.49826146 .00031685 00000-0 89369-3 0 9999 2 47311 60.6808 279.8397 0024749 145.5796 214.6906 15.35954486125426 MiTEE 1 1 47314U 21002F 23110.55059894 .00223756 00000-0 21704-2 0 9997 2 47314 60.6692 253.6990 0010442 134.5664 225.6298 15.65249863125881 ExoCube 2 1 47319U 21002L 23110.21004500 .00034197 00000-0 98501-3 0 9998 2 47319 60.6791 282.8652 0025346 147.7165 212.5485 15.35249493125302 UVSQ-SAT 1 47438U 21006AB 23110.10197599 .00023806 00000-0 10246-2 0 9997 2 47438 97.3903 168.1022 0008522 285.3298 74.6996 15.22581091123802 YUSAT 1 1 47439U 21006AC 23110.40967913 .00022356 00000-0 90795-3 0 9993 2 47439 97.3907 168.9608 0008014 280.3468 79.6866 15.24560624123885 SOMP 2b 1 47445U 21006AJ 23110.39242226 .00017006 00000-0 74779-3 0 9991 2 47445 97.3869 167.7252 0008391 289.9292 70.1039 15.21922212123823 IDEASSat 1 47458U 21006AX 23110.15611206 .00016894 00000-0 75347-3 0 9993 2 47458 97.3968 168.2474 0007653 289.9999 70.0412 15.21443917123771 CubeSX-Sirius-HSE 1 47951U 21022V 23110.81188694 .00013947 00000-0 80518-3 0 9994 2 47951 97.5030 9.1322 0019323 167.1699 267.1559 15.12285189114357 CubeSX-HSE 1 47952U 21022W 23110.71858481 .00014657 00000-0 84427-3 0 9994 2 47952 97.5033 9.0824 0019417 167.0981 252.0085 15.12351781114342 KSU-Cubesat 1 47954U 21022Y 23110.52533305 .00013758 00000-0 77744-3 0 9995 2 47954 97.5042 9.1947 0018968 166.2021 193.9732 15.13061504114059 GRBAlpha 1 47959U 21022AD 23110.52157527 .00014789 00000-0 85023-3 0 9992 2 47959 97.5036 8.9616 0019399 167.9827 315.9930 15.12420071113139 Orbicraft-Zorkiy 1 47960U 21022AE 23110.88964301 .00015651 00000-0 88515-3 0 9997 2 47960 97.5058 9.6736 0018879 165.9094 261.6531 15.13005297113899 STECCO 1 47962U 21022AG 23110.77227976 .00027328 00000-0 13406-2 0 9997 2 47962 97.5031 11.4806 0014125 153.2790 279.2177 15.17986981113325 DO-111 1 47963U 21022AH 23110.21199370 .00136618 00000-0 30863-2 0 9992 2 47963 97.5035 16.3778 0013546 130.0876 230.1561 15.42575052113601 MO-110 1 47964U 21022AJ 23110.31028974 .00022561 00000-0 10859-2 0 9999 2 47964 97.5048 11.5436 0016708 151.3532 208.8624 15.18654473113286 FEES 1 48082U 21022AL 23110.27659479 .00040551 00000-0 16973-2 0 9998 2 48082 97.5045 12.2746 0012963 143.6549 216.5570 15.23367845113037 TUBIN 1 48900U 21059X 23110.79576995 .00014097 00000-0 68691-3 0 9996 2 48900 97.5889 244.1027 0010485 120.5223 343.6493 15.18407932100465 IT-SPINS 1 49017U 21013G 23110.10243051 .00048151 00000-0 12391-2 0 9998 2 49017 51.5950 2.7690 0008894 118.1018 242.0865 15.38725240100758 LEDSAT 1 49069U 21073D 23110.14455875 .00011784 00000-0 66426-3 0 9995 2 49069 97.4861 182.0363 0023383 323.0972 36.8649 15.13108493 92128 CUTE 1 49263U 21088D 23110.16533157 .00011945 00000-0 78670-3 0 9992 2 49263 97.5486 177.0006 0020214 102.1681 258.1813 15.07503419 85549 TeikyoSat 4 1 49396U 21102B 23110.17686168 .00002976 00000-0 23149-3 0 9993 2 49396 97.5140 163.9528 0013699 287.3001 72.6725 15.01953292 79060 Z-Sat 1 49399U 21102E 23110.82626996 .00005011 00000-0 36123-3 0 9990 2 49399 97.4908 165.6814 0020743 264.1565 95.7297 15.04425430 79260 KOSEN 1 1 49402U 21102H 23110.10112927 .00008018 00000-0 55110-3 0 9997 2 49402 97.4830 165.3947 0019875 255.0271 104.8756 15.06034850 79211 HO-113 1 50466U 21131B 23110.52240131 .00001010 00000-0 34280-3 0 9996 2 50466 98.5520 192.2495 0003288 324.1431 35.9535 14.38836802 69067 Tevel-3 1 50988U 22002E 23110.68138051 .00028705 00000-0 12243-2 0 9991 2 50988 97.4380 178.1192 0009197 83.5130 17.9271 15.22844290 70009 Tevel-8 1 50989U 22002F 23110.63246184 .00028720 00000-0 12272-2 0 9993 2 50989 97.4401 178.1238 0009378 83.2290 20.6803 15.22780436 69999 Tevel-5 1 50998U 22002Q 23110.45018814 .00029724 00000-0 12403-2 0 9991 2 50998 97.4385 178.2110 0010496 80.1117 336.3702 15.23567465 69998 Tevel-6 1 50999U 22002R 23110.79224160 .00029580 00000-0 12336-2 0 9997 2 50999 97.4378 178.5457 0010394 79.0241 60.3249 15.23590251 70047 Tevel-1 1 51013U 22002AF 23110.76341822 .00028545 00000-0 12189-2 0 9993 2 51013 97.4380 178.1518 0009105 83.4394 62.7260 15.22808007 70014 Grizu-263a 1 51025U 22002AT 23110.17128235 .00072873 00000-0 20109-2 0 9996 2 51025 97.4530 181.5802 0007725 84.6568 275.5557 15.36788466 70126 NO-116 1 51031U 22002AZ 23110.13006221 .00050278 00000-0 17965-2 0 9990 2 51031 97.4505 179.8417 0010477 80.4998 279.7425 15.28611291 70027 IRIS-A 1 51044U 22002BN 23110.16380732 .00012100 00000-0 59316-3 0 9998 2 51044 97.4394 176.5421 0009887 86.4153 273.8211 15.18234775 69852 Tevel-7 1 51062U 22002CG 23110.77254502 .00028689 00000-0 12253-2 0 9997 2 51062 97.4390 178.2372 0009208 80.9929 61.7953 15.22799641 70019 Tevel-4 1 51063U 22002CH 23110.77644118 .00028576 00000-0 12219-2 0 9991 2 51063 97.4397 178.2296 0009404 82.4011 58.1460 15.22757215 70013 Tevel-2 1 51069U 22002CP 23110.41217769 .00028682 00000-0 12239-2 0 9996 2 51069 97.4375 177.8268 0009209 84.0220 332.3775 15.22830481 69967 DELFI-PQ 1 51074U 22002CU 23110.19646292 .00040307 00000-0 13250-2 0 9996 2 51074 97.4635 181.9108 0011295 106.7857 253.4624 15.31369376 70112 SO-115 1 51080U 22002DA 23110.14553663 .00029298 00000-0 11343-2 0 9994 2 51080 97.4651 180.8391 0012376 107.5048 252.7543 15.26064925 70030 SO-114 1 51081U 22002DB 23110.13908187 .00035606 00000-0 13711-2 0 9990 2 51081 97.4642 180.7985 0012592 107.3531 252.9085 15.26200130 70037 OreSat0 1 52017U 22026K 23110.25931635 .00020834 00000-0 88545-3 0 9998 2 52017 97.5104 112.5604 0020703 288.3226 71.5758 15.22875018 60722 Planetum 1 1 52738U 22057G 23110.26499529 .00018852 00000-0 91174-3 0 9993 2 52738 97.5312 226.3428 0007691 183.3378 176.7806 15.18624665 49863 Foresail-1 1 52766U 22057AL 23110.83072177 .00016189 00000-0 79039-3 0 9990 2 52766 97.5410 227.7662 0013090 165.7292 293.4723 15.18279590 49977 SNUGLITE 2 1 52899U 22065F 23110.34607548 .00002246 00000-0 48609-3 0 9996 2 52899 98.0599 256.8293 0008710 45.3370 314.8539 14.59142604 42429 CTIM 1 52950U 22074G 23109.57820907 .00068572 00000-0 17802-2 0 9997 2 52950 45.0036 325.6810 0013662 217.4787 142.5173 15.38064442 44569 IO-117 1 53106U 22080B 23108.90790059 -.00000003 00000-0 00000-0 0 9994 2 53106 70.1728 340.3248 0008244 198.7495 161.2861 6.42557220 17946 AstroBioCubeSat 1 53107U 22080C 22364.14200119 -.00000003 00000-0 00000-0 0 9997 2 53107 70.1674 18.5562 0013489 216.1674 143.8074 6.42110599 10793 SelfieSat 1 53951U 22057BC 23110.28696135 .00022756 00000-0 10610-2 0 9998 2 53951 97.5362 226.8354 0009932 179.2096 180.9156 15.19837520 49884 FO-118 1 54684U 22167C 23110.84027676 .00019912 00000-0 11382-2 0 9991 2 54684 97.5518 248.8972 0014814 169.7014 316.3694 15.12629191 20001 KILICSAT 1 56181U 23054D 23109.99546883 .00019674 00000-0 88273-3 0 9990 2 56181 97.4115 5.7683 0008263 232.3099 127.7388 15.21202115 1328 CIRBE 1 56188U 23054L 23109.99454963 .00025132 00000-0 11153-2 0 9992 2 56188 97.4130 5.7714 0008621 224.1023 135.9526 15.21524353 1327 INSPIRE-Sat 7 1 56211U 23054AK 23109.66177577 .00026297 00000-0 11187-2 0 9996 2 56211 97.4157 5.4551 0014011 211.2120 148.8286 15.22899729 1277 RoseyCubesat 1 1 56212U 23054AL 23109.79287206 .00028182 00000-0 11939-2 0 9992 2 56212 97.4164 5.5857 0014468 210.2780 149.7622 15.23021553 1292 /EX